User: anonymous   Login
Location: Plymouth
(43.7570°N, 71.6890°W)
Time: 19:30:39
(UTC-05:00)
Language:

COSMOS 2406 - Orbit

View from above orbital plane
View from above orbital plane
View from above satellite
View from above satellite

Ground track
Ground track

The orbit data is extracted from the following two-line orbital elements,

1 28352U 04021A   17349.79637145 +.00000286 +00000-0 +18282-3 0  9993
2 28352 071.0049 105.4894 0014630 202.8559 157.1913 14.11641536696436
Epoch (UTC): 15 December 2017 19:06:46
Eccentricity: 0.0014630
inclination: 71.0049°
perigee height: 843 km
apogee height: 864 km
right ascension of ascending node: 105.4894°
argument of perigee: 202.8559°
revolutions per day: 14.11641536
mean anomaly at epoch: 157.1913°
orbit number at epoch: 69643

The dashed part of the orbit path shows where the satellite is in the earth's shadow,  

DLR